Location: Ehrke Reservoir
(40.0279°N, 99.6641°W)
Time: 13:22:21
(UTC+00:00)

FALCON 9 R/B - Pass Details

Date: 20 January 2020
Orbit: 286 x 10158 km, 34.5° (Epoch: 20 February)

Event Time Altitude Azimuth Distance (km) Brightness Sun altitude
Rises 02:05:27 0° 234° (SW) 8,727 8.3 -27.2°
Reaches altitude 10° 02:14:11 10° 228° (SW) 5,863 7.1 -28.8°
Maximum altitude 02:25:45 32° 173° (S) 1,943 3.9 -31.1°
Enters shadow 02:26:01 32° 169° (S) 1,897 3.8 -31.1°
